SM6PGP-2 Weather Reports


Display with metric or nautical units.
time (UTC)temp
F
wind
direction
speed
MPH
gust
MPH
rain 1hr
in
rain 24hr
in
rain mn
in
humidity
%
barometer
mb
20171023114637 44 135 8.0 11.0 0.00 0.00 0.01 80 1017.6
20171023114132 44 117 9.0 12.0 0.00 0.00 0.01 80 1017.6
20171023113627 44 99 8.0 16.0 0.00 0.00 0.01 82 1017.6
20171023113121 44 99 7.0 13.0 0.00 0.00 0.01 82 1017.6
20171023112616 44 81 4.0 6.0 0.00 0.00 0.01 81 1017.5
20171023112111 44 108 9.0 13.0 0.00 0.00 0.01 82 1017.4
20171023111606 44 99 4.0 15.0 0.00 0.00 0.01 83 1017.5
20171023111101 43 139 13.0 13.0 0.00 0.00 0.01 83 1017.4
20171023110556 43 108 4.0 11.0 0.00 0.00 0.01 84 1017.5
20171023110050 43 81 7.0 10.0 0.00 0.00 0.01 85 1017.5
20171023105545 43 108 3.0 19.0 0.00 0.00 0.01 85 1017.4
20171023105040 43 63 7.0 12.0 0.00 0.00 0.01 85 1017.4
20171023104535 43 45 6.0 14.0 0.00 0.00 0.01 85 1017.4
20171023104029 42 63 6.0 7.0 0.00 0.00 0.01 87 1017.4
20171023103524 42 108 5.0 15.0 0.00 0.00 0.01 85 1017.3
20171023103019 42 72 3.0 7.0 0.00 0.00 0.01 86 1017.2
20171023102514 42 33 4.0 13.0 0.00 0.00 0.01 86 1017.2
20171023102009 42 45 5.0 14.0 0.00 0.00 0.01 86 1017.1
20171023101503 42 18 9.0 14.0 0.00 0.00 0.01 86 1017.0
20171023100958 43 72 7.0 16.0 0.00 0.00 0.01 85 1017.0
20171023100453 43 67 6.0 18.0 0.00 0.00 0.01 85 1017.0
20171023095948 43 45 3.0 19.0 0.00 0.00 0.01 85 1016.9
20171023095443 43 54 13.0 19.0 0.00 0.00 0.01 85 1016.9
20171023094937 43 90 4.0 10.0 0.00 0.00 0.01 85 1016.8
20171023094432 43 326 9.0 12.0 0.00 0.00 0.01 85 1016.7
20171023093927 43 76 11.0 14.0 0.00 0.00 0.01 86 1017.0
20171023093422 43 72 7.0 12.0 0.00 0.00 0.01 85 1016.9
20171023092917 43 45 9.0 11.0 0.00 0.00 0.01 85 1016.8
20171023092411 43 45 4.0 15.0 0.00 0.00 0.01 85 1016.8
20171023091906 43 94 6.0 15.0 0.00 0.00 0.01 85 1016.7
20171023091401 43 81 11.0 18.0 0.00 0.00 0.01 86 1016.6
20171023090856 43 157 10.0 13.0 0.00 0.00 0.01 86 1016.5
20171023090351 43 105 7.0 10.0 0.00 0.00 0.01 86 1016.5
20171023085845 43 225 7.0 15.0 0.00 0.00 0.01 87 1016.5
20171023085340 43 225 5.0 13.0 0.00 0.00 0.01 85 1016.3
20171023084835 44 90 5.0 11.0 0.00 0.00 0.01 85 1016.3
20171023084330 43 241 5.0 11.0 0.00 0.00 0.01 85 1016.2
20171023083825 43 202 3.0 14.0 0.00 0.00 0.01 86 1016.0
20171023083320 43 101 9.0 16.0 0.00 0.00 0.01 85 1015.9
20171023082814 43 0 5.0 13.0 0.00 0.00 0.01 86 1015.8
20171023082309 43 90 4.0 10.0 0.00 0.00 0.01 85 1015.8
20171023081804 44 90 8.0 17.0 0.00 0.00 0.01 85 1015.6
20171023081259 44 105 6.0 15.0 0.00 0.00 0.01 85 1015.7
20171023080753 44 90 9.0 15.0 0.00 0.00 0.01 85 1015.6
20171023080248 44 101 8.0 11.0 0.00 0.00 0.00 86 1015.6
20171023075744 44 135 8.0 16.0 0.00 0.00 0.00 85 1015.5
20171023075238 44 225 8.0 12.0 0.00 0.00 0.00 85 1015.4
20171023074733 44 135 15.0 15.0 0.00 0.00 0.00 87 1015.2
20171023074227 44 99 3.0 20.0 0.00 0.00 0.00 86 1015.3
20171023073722 44 90 3.0 13.0 0.00 0.00 0.00 87 1015.2
20171023073217 44 90 1.0 12.0 0.00 0.00 0.00 89 1015.1
20171023072712 44 153 10.0 10.0 0.00 0.00 0.00 86 1015.0
20171023072207 44 108 4.0 8.0 0.00 0.00 0.00 87 1015.1
20171023071701 44 225 4.0 10.0 0.00 0.00 0.00 89 1015.0
20171023071156 44 90 11.0 11.0 0.00 0.00 0.00 87 1014.9
20171023070651 44 130 17.0 17.0 0.00 0.00 0.00 88 1014.8
20171023070146 44 117 7.0 12.0 0.00 0.00 0.00 87 1014.8
20171023065641 44 99 7.0 10.0 0.00 0.00 0.00 87 1014.7
20171023065135 44 90 3.0 11.0 0.00 0.00 0.00 87 1014.7
20171023064630 44 135 7.0 12.0 0.00 0.00 0.00 88 1014.7
20171023064125 44 72 7.0 18.0 0.00 0.00 0.00 87 1014.6
20171023063620 44 157 4.0 11.0 0.00 0.00 0.00 87 1014.5
20171023063115 44 225 10.0 10.0 0.00 0.00 0.00 86 1014.4
20171023062609 44 90 14.0 18.0 0.00 0.00 0.00 87 1014.3
20171023062104 44 225 14.0 16.0 0.00 0.00 0.00 89 1014.1
20171023061559 44 90 5.0 15.0 0.00 0.00 0.00 88 1014.2
20171023061054 44 225 4.0 18.0 0.00 0.00 0.00 87 1014.0
20171023060549 44 157 6.0 11.0 0.00 0.00 0.00 87 1013.9
20171023060043 44 67 8.0 20.0 0.00 0.00 0.00 87 1013.8
20171023055538 44 90 12.0 17.0 0.00 0.00 0.00 90 1013.7
20171023055033 44 225 7.0 19.0 0.00 0.00 0.00 90 1013.6
20171023054528 44 225 7.0 13.0 0.00 0.00 0.00 90 1013.4
20171023054023 44 90 9.0 16.0 0.00 0.00 0.00 88 1013.3
20171023053517 45 90 10.0 12.0 0.00 0.00 0.00 88 1013.3
20171023053012 45 90 18.0 18.0 0.00 0.00 0.00 90 1013.2
20171023052507 45 90 13.0 15.0 0.00 0.00 0.00 91 1013.2
20171023052002 45 94 5.0 16.0 0.00 0.00 0.00 90 1013.1
20171023051457 45 225 7.0 9.0 0.00 0.00 0.00 90 1013.0
20171023050951 45 82 9.0 13.0 0.00 0.00 0.00 90 1013.0
20171023050446 45 225 8.0 11.0 0.00 0.00 0.00 89 1013.1
20171023045941 45 225 5.0 12.0 0.00 0.00 0.00 89 1013.0
20171023045436 45 90 5.0 13.0 0.00 0.00 0.00 89 1012.8
20171023044931 45 90 5.0 15.0 0.00 0.00 0.00 89 1012.8
20171023044425 45 90 6.0 15.0 0.00 0.00 0.00 90 1012.7
20171023043920 45 225 5.0 15.0 0.00 0.00 0.00 89 1012.6
20171023043415 45 225 9.0 11.0 0.00 0.00 0.00 91 1012.5
20171023042910 45 225 7.0 14.0 0.00 0.00 0.00 90 1012.5
20171023042405 45 90 7.0 14.0 0.00 0.00 0.00 89 1012.5
20171023041859 45 225 6.0 12.0 0.00 0.00 0.00 91 1012.4
20171023041354 45 90 8.0 11.0 0.00 0.00 0.00 89 1012.4
20171023040849 45 105 6.0 14.0 0.00 0.00 0.00 89 1012.4
20171023040344 45 225 7.0 10.0 0.00 0.00 0.00 91 1012.1
20171023035839 45 90 15.0 17.0 0.00 0.00 0.00 89 1012.1
20171023035333 46 225 9.0 15.0 0.00 0.00 0.00 90 1012.2
20171023034828 46 90 9.0 14.0 0.00 0.00 0.00 89 1012.2
20171023034323 46 90 2.0 12.0 0.00 0.00 0.00 91 1012.0
20171023033818 46 108 8.0 11.0 0.00 0.00 0.00 91 1012.0
20171023033313 46 101 7.0 10.0 0.00 0.00 0.00 91 1012.0
20171023032807 46 90 5.0 11.0 0.00 0.00 0.00 91 1011.9
20171023032302 46 90 17.0 17.0 0.00 0.00 0.00 91 1011.8
20171023031757 46 225 12.0 15.0 0.00 0.00 0.00 91 1011.8
20171023031252 46 225 10.0 12.0 0.00 0.00 0.00 92 1011.7
20171023030747 46 90 5.0 11.0 0.00 0.00 0.00 93 1011.7
20171023030241 46 225 9.0 10.0 0.00 0.00 0.00 91 1011.7
20171023025736 46 225 5.0 12.0 0.00 0.00 0.00 91 1011.5
20171023025231 46 0 1.0 9.0 0.00 0.00 0.00 91 1011.5
20171023024726 46 90 7.0 11.0 0.00 0.00 0.00 92 1011.5
20171023024221 46 45 6.0 11.0 0.00 0.00 0.00 92 1011.5
20171023023715 46 225 8.0 11.0 0.00 0.00 0.00 91 1011.3
20171023023210 46 225 5.0 12.0 0.00 0.00 0.00 92 1011.2
20171023022705 46 45 4.0 6.0 0.00 0.00 0.00 93 1011.1
20171023022200 47 90 6.0 12.0 0.00 0.00 0.00 91 1011.2
20171023021655 47 108 4.0 9.0 0.00 0.00 0.00 92 1011.1
20171023021149 47 225 10.0 10.0 0.00 0.00 0.00 91 1011.1
20171023020644 47 117 7.0 10.0 0.00 0.00 0.00 91 1011.0
20171023020139 47 90 4.0 15.0 0.00 0.00 0.00 93 1011.0
20171023015634 47 225 4.0 8.0 0.00 0.00 0.00 91 1011.1
20171023015129 47 126 4.0 11.0 0.00 0.00 0.00 91 1011.0
20171023014623 47 118 4.0 8.0 0.00 0.00 0.00 94 1011.0
20171023014118 47 90 2.0 5.0 0.00 0.00 0.00 93 1011.0
20171023013613 47 99 11.0 15.0 0.00 0.00 0.00 94 1011.0
20171023013108 47 126 4.0 6.0 0.00 0.00 0.00 94 1010.9
20171023012603 47 90 3.0 6.0 0.00 0.00 0.00 96 1011.0
20171023012057 47 135 6.0 12.0 0.00 0.00 0.00 93 1010.9
20171023011552 47 171 5.0 10.0 0.00 0.00 0.00 95 1010.8
20171023011047 47 180 2.0 7.0 0.00 0.00 0.00 92 1010.8
20171023010542 47 247 4.0 13.0 0.00 0.00 0.00 93 1010.7
20171023010037 47 112 3.0 7.0 0.00 0.00 0.00 95 1010.6
20171023005531 47 105 3.0 8.0 0.00 0.00 0.00 94 1010.5
20171023005027 47 101 4.0 8.0 0.00 0.00 0.00 96 1010.5
20171023004521 47 99 7.0 9.0 0.00 0.00 0.00 93 1010.5
20171023004016 47 120 3.0 10.0 0.00 0.00 0.00 93 1010.4
20171023003511 47 148 3.0 9.0 0.00 0.00 0.00 95 1010.3
20171023003005 47 11 4.0 9.0 0.00 0.00 0.00 95 1010.2
20171023002501 47 225 8.0 9.0 0.00 0.00 0.00 96 1010.1
20171023001955 47 90 7.0 11.0 0.00 0.00 0.00 95 1010.1
20171023001450 47 207 5.0 7.0 0.00 0.00 0.00 96 1010.0
20171023000945 47 117 8.0 23.0 0.00 0.00 0.00 95 1010.0
20171023000439 47 225 5.0 8.0 0.00 0.00 0.00 96 1009.9
20171022235935 47 123 6.0 9.0 0.00 0.00 0.00 96 1010.0
20171022235429 47 22 5.0 13.0 0.00 0.00 0.00 94 1010.2
20171022234924 47 225 4.0 7.0 0.00 0.00 0.00 96 1009.9
20171022234419 47 225 7.0 12.0 0.00 0.00 0.00 94 1009.9
20171022233913 47 90 8.0 9.0 0.00 0.00 0.00 94 1010.0
20171022233408 47 225 4.0 10.0 0.00 0.00 0.00 96 1009.9
20171022232903 47 82 4.0 13.0 0.00 0.00 0.00 94 1010.0
20171022232358 47 146 4.0 11.0 0.00 0.00 0.00 94 1009.9
20171022231853 47 117 6.0 8.0 0.00 0.00 0.00 95 1009.9
20171022231347 47 33 6.0 10.0 0.00 0.00 0.00 93 1009.9
20171022230842 47 90 4.0 9.0 0.00 0.00 0.00 95 1009.8
20171022230337 47 225 4.0 9.0 0.00 0.00 0.00 96 1009.8
20171022225832 47 225 5.0 5.0 0.00 0.00 0.00 95 1009.8
20171022225327 47 99 2.0 11.0 0.00 0.00 0.00 94 1010.0
20171022224821 47 90 5.0 6.0 0.00 0.00 0.00 94 1009.9
20171022224316 47 85 0.0 3.0 0.00 0.00 0.00 96 1009.9
20171022223811 47 346 1.0 5.0 0.00 0.00 0.00 96 1009.9
20171022223306 47 60 3.0 7.0 0.00 0.00 0.00 96 1009.9
20171022222801 47 108 9.0 9.0 0.00 0.00 0.00 96 1009.9
20171022222255 47 90 3.0 6.0 0.00 0.00 0.00 95 1010.0
20171022221750 47 90 7.0 9.0 0.00 0.00 0.00 93 1010.0
20171022221245 47 90 7.0 13.0 0.00 0.00 0.00 93 1010.0
20171022220740 47 247 0.0 3.0 0.00 0.00 0.00 93 1009.8
20171022220235 47 94 7.0 8.0 0.00 0.00 0.00 94 1009.8
20171022215729 47 225 6.0 9.0 0.00 0.00 0.00 94 1009.8
20171022215224 47 90 7.0 8.0 0.00 0.00 0.00 96 1009.7
20171022214719 47 225 5.0 13.0 0.00 0.00 0.00 95 1009.7
20171022214214 47 225 4.0 10.0 0.00 0.00 0.00 94 1009.7
20171022213709 47 225 4.0 7.0 0.00 0.00 0.00 94 1009.7
20171022213203 47 126 5.0 7.0 0.00 0.00 0.00 96 1009.6
20171022212658 47 90 6.0 7.0 0.00 0.00 0.00 95 1009.6
20171022212153 47 82 5.0 9.0 0.00 0.00 0.00 93 1009.6
20171022211648 47 108 7.0 11.0 0.00 0.00 0.00 95 1009.5
20171022211143 47 90 4.0 8.0 0.00 0.00 0.00 96 1009.5
20171022210637 47 225 3.0 12.0 0.00 0.00 0.00 93 1009.6
20171022210132 47 101 5.0 5.0 0.00 0.00 0.00 94 1009.4
20171022205627 47 75 4.0 6.0 0.00 0.00 0.00 94 1009.3
20171022205122 47 135 4.0 7.0 0.00 0.00 0.00 96 1009.3
20171022204617 47 67 6.0 7.0 0.00 0.00 0.00 94 1009.4
20171022204111 47 85 4.0 4.0 0.00 0.00 0.00 96 1009.3
20171022203606 47 99 4.0 6.0 0.00 0.00 0.00 93 1009.4
20171022203101 47 232 3.0 6.0 0.00 0.00 0.00 94 1009.4
20171022202556 47 90 3.0 12.0 0.00 0.00 0.00 93 1009.4
20171022202051 47 103 10.0 10.0 0.00 0.00 0.00 95 1009.1
20171022201545 47 232 2.0 9.0 0.00 0.00 0.00 95 1009.2
20171022201040 47 90 4.0 7.0 0.00 0.00 0.00 92 1009.1
20171022200535 47 225 2.0 6.0 0.00 0.00 0.00 94 1009.0
20171022200030 47 225 7.0 9.0 0.00 0.00 0.00 95 1009.1
20171022195525 47 90 1.0 7.0 0.00 0.00 0.00 96 1009.1
20171022195019 47 30 2.0 3.0 0.00 0.00 0.00 97 1009.0
20171022194514 47 225 5.0 7.0 0.00 0.00 0.00 93 1009.0
20171022194009 47 82 7.0 7.0 0.00 0.00 0.00 93 1009.1
20171022193504 47 225 3.0 11.0 0.00 0.00 0.00 93 1009.1
20171022192959 47 101 3.0 11.0 0.00 0.00 0.00 95 1009.0
20171022192453 47 99 1.0 9.0 0.00 0.00 0.00 96 1009.0
20171022191948 48 90 5.0 10.0 0.00 0.00 0.00 93 1009.0
20171022191443 48 225 8.0 11.0 0.00 0.00 0.00 94 1009.0
20171022190938 48 90 8.0 8.0 0.00 0.00 0.00 94 1009.0
20171022190433 48 99 2.0 9.0 0.00 0.00 0.00 96 1008.9
20171022185928 48 90 9.0 9.0 0.00 0.00 0.00 96 1009.0
20171022185422 48 225 1.0 8.0 0.00 0.00 0.00 96 1009.1
20171022184917 48 67 6.0 10.0 0.00 0.00 0.00 94 1009.0
20171022184412 48 225 5.0 9.0 0.00 0.00 0.00 93 1009.0
20171022183907 48 225 4.0 8.0 0.00 0.00 0.00 96 1008.9
20171022183401 48 346 0.0 6.0 0.00 0.00 0.00 96 1009.0
20171022182856 48 90 4.0 7.0 0.00 0.00 0.00 94 1009.0
20171022182351 48 60 3.0 11.0 0.00 0.00 0.00 96 1009.0
20171022181846 48 90 7.0 9.0 0.00 0.00 0.00 94 1008.9
20171022181341 48 108 5.0 7.0 0.00 0.00 0.00 96 1009.0
20171022180835 48 90 5.0 8.0 0.00 0.00 0.00 94 1009.1
20171022180330 48 225 5.0 10.0 0.00 0.00 0.11 96 1008.9
20171022175825 48 225 5.0 8.0 0.00 0.00 0.11 95 1009.0
20171022175320 48 82 7.0 10.0 0.00 0.00 0.11 96 1008.9
20171022174815 48 101 5.0 7.0 0.00 0.00 0.11 94 1008.9
20171022174309 48 225 4.0 7.0 0.00 0.00 0.11 95 1008.9
20171022173804 48 225 3.0 7.0 0.00 0.00 0.11 94 1008.8
20171022173259 48 90 5.0 9.0 0.00 0.00 0.11 95 1008.8
20171022172754 48 225 3.0 11.0 0.00 0.00 0.11 96 1008.8
20171022172249 48 225 5.0 8.0 0.00 0.00 0.11 96 1008.8
20171022171743 48 75 7.0 11.0 0.00 0.00 0.11 94 1008.6
20171022171238 48 75 3.0 13.0 0.00 0.00 0.11 95 1008.7
20171022170733 48 225 9.0 12.0 0.00 0.00 0.11 94 1008.5
20171022170228 48 90 5.0 13.0 0.00 0.00 0.11 94 1008.6
20171022165723 48 225 5.0 12.0 0.00 0.00 0.11 95 1008.5
20171022165217 48 225 5.0 8.0 0.00 0.00 0.11 93 1008.4
20171022164712 48 247 9.0 9.0 0.00 0.00 0.11 95 1008.4
20171022164207 48 241 7.0 9.0 0.00 0.00 0.11 96 1008.6
20171022163702 48 240 3.0 10.0 0.00 0.00 0.11 94 1008.4
20171022163157 48 240 3.0 8.0 0.00 0.00 0.11 95 1008.6
20171022162651 48 225 6.0 10.0 0.00 0.00 0.11 93 1008.5
20171022162146 48 225 4.0 12.0 0.00 0.00 0.11 96 1008.5
20171022161641 48 241 7.0 10.0 0.00 0.00 0.11 93 1008.4
20171022161136 48 241 4.0 12.0 0.00 0.00 0.11 96 1008.4
20171022160631 48 105 9.0 12.0 0.00 0.00 0.11 95 1008.3
20171022160125 48 247 5.0 9.0 0.00 0.00 0.11 93 1008.4
20171022155620 48 90 9.0 9.0 0.00 0.00 0.11 93 1008.5
20171022155115 48 117 5.0 7.0 0.00 0.00 0.11 96 1008.3
20171022154610 48 108 3.0 14.0 0.00 0.00 0.11 95 1008.3
20171022154105 49 240 4.0 10.0 0.00 0.00 0.11 94 1008.3
20171022153600 48 90 2.0 7.0 0.00 0.00 0.11 94 1008.3
20171022153054 49 101 5.0 13.0 0.00 0.00 0.11 96 1008.3
20171022152549 49 135 2.0 12.0 0.00 0.00 0.11 96 1008.2
20171022152044 49 99 3.0 12.0 0.00 0.00 0.11 95 1008.2
20171022151539 49 175 3.0 8.0 0.00 0.00 0.11 96 1008.2
20171022151034 49 232 2.0 6.0 0.00 0.00 0.11 94 1008.2
20171022150528 49 90 3.0 9.0 0.00 0.00 0.11 94 1008.2
20171022150023 49 97 6.0 10.0 0.00 0.00 0.11 95 1008.2
20171022145518 49 99 5.0 7.0 0.00 0.00 0.11 93 1008.1
20171022145013 49 85 9.0 11.0 0.00 0.00 0.11 93 1008.0
20171022144507 49 230 7.0 8.0 0.00 0.00 0.11 96 1008.1
20171022144002 49 108 4.0 9.0 0.00 0.00 0.11 93 1008.1
20171022143457 49 112 6.0 11.0 0.00 0.00 0.11 96 1008.0
20171022142952 49 117 3.0 11.0 0.00 0.00 0.11 93 1008.2
20171022142447 49 247 1.0 8.0 0.00 0.00 0.11 93 1008.1
20171022141941 49 236 11.0 11.0 0.00 0.00 0.11 93 1008.1
20171022141436 49 153 0.0 9.0 0.00 0.00 0.11 96 1008.1
20171022140931 49 135 0.0 5.0 0.00 0.00 0.11 96 1008.2
20171022140426 49 108 6.0 7.0 0.00 0.00 0.11 96 1008.1
20171022135921 49 90 2.0 8.0 0.00 0.00 0.11 96 1008.2
20171022135415 49 241 4.0 5.0 0.00 0.00 0.11 93 1008.1
20171022134912 49 45 0.0 7.0 0.00 0.00 0.11 95 1008.2
20171022134405 49 139 5.0 5.0 0.00 0.00 0.11 93 1008.2
20171022133900 49 90 3.0 5.0 0.00 0.00 0.11 95 1008.3
20171022133355 49 247 4.0 5.0 0.00 0.00 0.11 93 1008.1
20171022132849 49 94 5.0 5.0 0.00 0.00 0.11 94 1008.2
20171022132344 49 117 3.0 7.0 0.00 0.00 0.11 96 1008.3
20171022131839 49 126 2.0 7.0 0.00 0.00 0.11 93 1008.2
20171022131334 49 130 4.0 9.0 0.00 0.00 0.11 95 1008.2
20171022130829 49 90 1.0 7.0 0.00 0.00 0.11 95 1008.2
20171022130323 50 90 2.0 7.0 0.00 0.00 0.11 95 1008.2
20171022125818 50 247 4.0 12.0 0.00 0.00 0.11 93 1008.3
20171022125313 50 90 9.0 9.0 0.00 0.00 0.11 95 1008.3
20171022124808 50 135 9.0 9.0 0.00 0.00 0.11 94 1008.2
20171022124303 50 238 4.0 8.0 0.00 0.00 0.11 93 1008.2
20171022123757 50 90 4.0 7.0 0.00 0.00 0.11 93 1008.3
20171022123252 50 121 3.0 6.0 0.00 0.00 0.11 96 1008.2
20171022122747 50 117 6.0 6.0 0.00 0.00 0.11 96 1008.3
20171022122242 50 90 2.0 5.0 0.00 0.00 0.11 94 1008.2
20171022121737 50 90 3.0 7.0 0.00 0.00 0.11 93 1008.4
20171022121231 50 126 0.0 7.0 0.00 0.00 0.11 93 1008.3
20171022120726 50 90 4.0 5.0 0.00 0.00 0.11 94 1008.3
20171022120221 50 90 2.0 6.0 0.00 0.00 0.11 93 1008.4
20171022115716 50 241 2.0 5.0 0.00 0.00 0.11 93 1008.4
20171022115211 50 105 4.0 6.0 0.00 0.00 0.11 94 1008.4